Regional Weather Roundup
Issued by NWS Jackson, KY

Home | Current Version | Previous Version | Text Only | Print | Product List | Glossary Off
Versions: 1 2 3 4 5 6 7 8 9 10 11 12 13 14 15 16 17 18 19 20 21 22 23 24 25 26 27 28 29 30 31 32 33 34 35 36 37 38 39 40 41 42 43 44 45 46 47 48 49 50

000
ASUS43 KJKL 272305
RWRJKL

EAST KENTUCKY HOURLY WEATHER ROUNDUP
NATIONAL WEATHER SERVICE JACKSON KY
700 PM EDT WED AUG 27 2014

NOTE: "FAIR" INDICATES FEW OR NO CLOUDS BELOW 12,000 FEET WITH
NO SIGNIFICANT WEATHER AND/OR OBSTRUCTIONS TO VISIBILITY.

* THESE REPORTS ARE NOT UNDER NWS QUALITY CONTROL AND MAY NOT
  REPORT WEATHER SUCH AS PRECIPITATION AND FOG.

KYZ079-080-083-085-087-088-110-112-115-119-120-280000
...EASTERN KENTUCKY...

CITY           SKY/WX    TMP DP  RH WIND       PRES   REMARKS
JACKSON        SUNNY     82  70  66 CALM      30.06F
LONDON         SUNNY     85  67  54 SE5       30.06F
SOMERSET*      MOSUNNY   86  66  51 CALM      30.05F
MONTICELLO*    SUNNY     88  72  58 CALM      30.06F HX  94
MIDDLESBORO*   SUNNY     84  65  52 N3        30.06F
HARLAN APT*    CLEAR     81  59  47 MISG      30.07F
BLACK MTN*       N/A     68  63  83 NE1         N/A
PIKEVILLE APT* SUNNY     81  68  65 CALM      30.07F
BIG SANDY*     CLEAR     82  70  66 CALM      30.05F
MOREHEAD APT*  CLEAR     82  72  69 S5        30.05S
$$

KYZ035-036-041-042-044-050-067-078-099-280000
...CENTRAL KENTUCKY...

CITY           SKY/WX    TMP DP  RH WIND       PRES   REMARKS
MT STERLING*   MOSUNNY   82  72  69 SW3       30.06R
FLEMING/MASON* PTSUNNY   81  71  69 SW5       30.04S
DANVILLE*        N/A    N/A N/A N/A CALM      30.06S
RICHMOND*      MOSUNNY   84  68  58 CALM      30.04S
LEXINGTON      MOSUNNY   78  68  71 NW16G30   30.08R THUNDER
FRANKFORT      CLOUDY    72  68  87 SE8       30.04R
$$

KYZ091>093-OHZ055-061-077-WVZ005-015-034-035-042-280000
...SOUTHERN OHIO/WEST VIRGINIA...

CITY           SKY/WX    TMP DP  RH WIND       PRES   REMARKS
COVINGTON      MOSUNNY   88  69  53 NW10      30.02S HX  92
COLUMBUS       PTSUNNY   84  70  62 N8        30.01F
DAYTON         MOSUNNY   84  71  65 N9        30.05F
WILMINGTON     MOSUNNY   84  70  62 N7        30.02F
HUNTINGTON     SUNNY     83  70  64 SW5       30.01F
CHARLESTON     MOSUNNY   85  69  58 W6        30.01F
PINEVILLE*     SUNNY     76  73  89 MISG      30.12F
BECKLEY        SUNNY     80  62  54 N7        30.11F
BLUEFIELD      SUNNY     78  62  57 W7        30.14F
$$

VAZ002-007-008-TNZ017-027-036-066-071-280000
...SOUTHWEST VIRGINIA/EAST TENNESSEE...

CITY           SKY/WX    TMP DP  RH WIND       PRES   REMARKS
WISE*          SUNNY     79  55  44 CALM      30.15F
JONESVILLE*      N/A     84  61  45 CALM      30.08F
ABINGDON*      SUNNY     82  61  49 CALM      30.10F
BRISTOL        MOSUNNY   83  57  41 N3        30.07F
KNOXVILLE      PTSUNNY   83  62  49 E7        30.04S
OAK RIDGE      SUNNY     87  61  41 E5        30.06F
CROSSVILLE     SUNNY     83  61  47 N7        30.10F
NASHVILLE      MOSUNNY   89  68  49 SE9       30.03F HX  93
$$

...KEY TO REMARKS...
VSB - VISIBILITY IN MILES
WCI - WIND CHILL INDEX
HX  - HEAT INDEX

$$



USA.gov is the U.S. government's official web portal to all federal, state and local government web resources and services.